Date,TemperatureHighF,TemperatureAvgF,TemperatureLowF,DewpointHighF,DewpointAvgF,DewpointLowF,HumidityHigh,HumidityAvg,HumidityLow,PressureMaxIn,PressureMinIn,WindSpeedMaxMPH,WindSpeedAvgMPH,GustSpeedMaxMPH,PrecipitationSumIn
2013-2-1,22,17,10,16,8,1,95,70,55,29.98,29.47,31,11,36,0.00
2013-2-2,22,15,9,13,6,1,93,72,54,29.98,29.72,22,7,26,0.00
2013-2-3,24,18,14,15,11,8,97,78,60,29.82,29.55,23,3,25,0.00
2013-2-4,20,16,12,15,9,5,95,79,58,29.76,29.55,29,8,34,0.00
2013-2-5,25,18,12,21,10,6,99,76,57,29.78,29.67,14,4,17,0.00
2013-2-6,28,22,12,23,13,-1,100,76,43,30.26,29.67,35,9,35,0.00
2013-2-7,23,15,8,11,4,-2,83,63,47,30.32,29.99,13,4,13,0.00
2013-2-8,30,22,18,22,16,6,100,80,54,30.15,29.63,29,5,34,0.00
2013-2-9,19,12,6,18,5,-5,100,78,50,30.28,29.66,28,10,28,0.00
2013-2-10,31,16,5,3,0,-6,75,52,26,30.34,29.86,37,4,40,0.00
2013-2-11,40,34,27,39,27,-2,100,82,29,30.11,29.50,37,15,39,0.04
2013-2-12,34,31,27,32,25,20,93,81,74,29.78,29.55,34,10,40,0.00
2013-2-13,34,28,21,23,20,15,90,73,55,29.73,29.55,14,5,17,0.00
2013-2-14,34,29,22,25,20,16,83,71,62,29.79,29.55,24,6,26,0.00
2013-2-15,43,35,25,27,23,14,100,67,49,29.87,29.71,22,9,24,0.00
2013-2-16,28,22,14,25,13,0,100,72,55,29.86,29.50,26,6,27,0.00
2013-2-17,20,12,6,4,0,-6,75,61,38,29.91,29.42,35,13,40,0.07
2013-2-18,27,13,2,5,-2,-7,75,56,40,29.96,29.69,26,9,30,0.00
2013-2-19,39,30,20,34,20,3,100,70,48,29.93,29.45,38,12,44,0.19
2013-2-20,28,22,18,28,13,5,100,74,52,29.73,29.48,37,12,40,0.00
2013-2-21,20,14,11,13,8,3,93,79,70,30.19,29.66,29,10,31,0.00
2013-2-22,33,24,15,23,18,11,97,82,67,30.21,29.97,20,5,23,0.00
2013-2-23,35,32,29,33,28,22,100,90,75,30.07,29.68,22,8,25,0.00
2013-2-24,33,30,25,33,29,23,100,99,89,29.97,29.65,19,5,23,0.05
2013-2-25,37,30,24,29,26,23,100,87,64,30.15,29.86,10,4,11,0.02
2013-2-26,39,32,26,33,26,22,99,81,62,30.16,29.64,27,4,27,0.01
2013-2-27,41,36,28,37,33,22,100,90,67,29.90,29.40,27,6,34,0.32
2013-2-28,39,34,29,38,33,28,100,98,87,29.53,29.42,13,4,13,0.06